TimeEDT,TemperatureF,Dew PointF,Humidity,Sea Level PressureIn,VisibilityMPH,Wind Direction,Wind SpeedMPH,Gust SpeedMPH,PrecipitationIn,Events,Conditions,WindDirDegrees,DateUTC
12:15 AM,21.2,10.4,63,30.12,10.0,Calm,Calm,-,N/A,,Clear,0,2014-03-14 04:15:00
12:35 AM,20.8,9.3,61,30.12,10.0,Calm,Calm,-,N/A,,Clear,0,2014-03-14 04:35:00
12:55 AM,21.2,9.1,60,30.12,10.0,Calm,Calm,-,N/A,,Clear,0,2014-03-14 04:55:00
1:15 AM,21.4,10.0,62,30.12,10.0,Calm,Calm,-,N/A,,Clear,0,2014-03-14 05:15:00
1:35 AM,21.7,9.1,58,30.12,10.0,South,3.5,-,N/A,,Clear,190,2014-03-14 05:35:00
1:55 AM,21.0,11.8,68,30.12,10.0,Calm,Calm,-,N/A,,Clear,0,2014-03-14 05:55:00
2:15 AM,20.5,11.3,68,30.12,10.0,Calm,Calm,-,N/A,,Clear,0,2014-03-14 06:15:00
2:35 AM,18.9,11.5,73,30.12,10.0,Calm,Calm,-,N/A,,Clear,0,2014-03-14 06:35:00
2:55 AM,20.1,11.5,69,30.13,10.0,Calm,Calm,-,N/A,,Clear,0,2014-03-14 06:55:00
3:15 AM,20.3,10.9,67,30.12,10.0,Calm,Calm,-,N/A,,Clear,0,2014-03-14 07:15:00
3:35 AM,20.3,11.1,68,30.12,10.0,Calm,Calm,-,N/A,,Clear,0,2014-03-14 07:35:00
3:55 AM,21.0,10.8,65,30.13,10.0,Calm,Calm,-,N/A,,Clear,0,2014-03-14 07:55:00
4:15 AM,20.5,9.7,63,30.14,10.0,Calm,Calm,-,N/A,,Clear,0,2014-03-14 08:15:00
4:35 AM,20.5,10.8,66,30.14,10.0,Calm,Calm,-,N/A,,Scattered Clouds,0,2014-03-14 08:35:00
4:55 AM,20.1,9.0,62,30.15,10.0,Calm,Calm,-,N/A,,Mostly Cloudy,0,2014-03-14 08:55:00
5:15 AM,21.0,11.1,66,30.15,10.0,Calm,Calm,-,N/A,,Overcast,0,2014-03-14 09:15:00
5:35 AM,20.8,11.7,68,30.15,10.0,Calm,Calm,-,N/A,,Overcast,0,2014-03-14 09:35:00
5:55 AM,21.7,12.9,69,30.17,10.0,Calm,Calm,-,N/A,,Overcast,0,2014-03-14 09:55:00
6:15 AM,21.4,14.2,74,30.17,10.0,Calm,Calm,-,N/A,,Overcast,0,2014-03-14 10:15:00
6:35 AM,21.4,14.0,73,30.17,10.0,NNE,3.5,-,N/A,,Overcast,30,2014-03-14 10:35:00
6:55 AM,20.8,14.7,77,30.16,10.0,NNE,4.6,-,N/A,,Mostly Cloudy,20,2014-03-14 10:55:00
7:15 AM,20.5,14.9,79,30.16,10.0,North,4.6,-,N/A,,Scattered Clouds,10,2014-03-14 11:15:00
7:35 AM,20.3,14.0,77,30.17,10.0,North,3.5,-,N/A,,Clear,10,2014-03-14 11:35:00
7:55 AM,19.4,13.1,76,30.17,10.0,NNE,4.6,-,N/A,,Clear,20,2014-03-14 11:55:00
8:15 AM,21.2,13.6,73,30.18,10.0,NE,3.5,-,N/A,,Clear,50,2014-03-14 12:15:00
8:35 AM,22.6,13.8,69,30.18,10.0,NE,3.5,-,N/A,,Clear,50,2014-03-14 12:35:00
8:55 AM,23.9,13.3,64,30.18,10.0,NNE,3.5,-,N/A,,Clear,20,2014-03-14 12:55:00
9:15 AM,25.5,13.8,61,30.17,10.0,Calm,Calm,-,N/A,,Clear,0,2014-03-14 13:15:00
9:35 AM,28.2,14.4,56,30.17,10.0,Calm,Calm,-,N/A,,Clear,0,2014-03-14 13:35:00
9:55 AM,30.7,14.2,50,30.17,10.0,Calm,Calm,-,N/A,,Clear,0,2014-03-14 13:55:00
10:15 AM,33.1,12.0,42,30.17,10.0,SW,4.6,-,N/A,,Clear,230,2014-03-14 14:15:00
10:35 AM,35.1,11.7,38,30.17,10.0,SSW,4.6,-,N/A,,Clear,200,2014-03-14 14:35:00
10:55 AM,37.2,11.7,35,30.17,10.0,SW,9.2,-,N/A,,Clear,220,2014-03-14 14:55:00
11:15 AM,39.4,13.5,35,30.17,10.0,SSW,5.8,-,N/A,,Clear,200,2014-03-14 15:15:00
11:35 AM,40.6,12.6,32,30.15,10.0,SW,6.9,-,N/A,,Clear,220,2014-03-14 15:35:00
11:55 AM,43.0,14.4,31,30.15,10.0,SSW,9.2,-,N/A,,Clear,210,2014-03-14 15:55:00
12:15 PM,45.1,13.8,28,30.14,10.0,WSW,11.5,-,N/A,,Clear,240,2014-03-14 16:15:00
12:35 PM,48.4,17.6,29,30.13,10.0,SW,11.5,-,N/A,,Clear,230,2014-03-14 16:35:00
12:55 PM,49.5,18.0,29,30.12,10.0,SW,13.8,19.6,N/A,,Clear,230,2014-03-14 16:55:00
1:15 PM,50.4,17.4,27,30.12,10.0,WSW,13.8,20.7,N/A,,Clear,240,2014-03-14 17:15:00
1:35 PM,52.2,18.0,26,30.10,10.0,SW,13.8,20.7,N/A,,Clear,230,2014-03-14 17:35:00
1:55 PM,52.7,17.8,25,30.08,10.0,WSW,11.5,21.9,N/A,,Clear,240,2014-03-14 17:55:00
2:15 PM,54.1,18.5,25,30.06,10.0,SW,11.5,19.6,N/A,,Clear,230,2014-03-14 18:15:00
2:35 PM,54.5,18.5,24,30.04,10.0,SW,11.5,19.6,N/A,,Clear,220,2014-03-14 18:35:00
2:55 PM,56.1,19.4,24,30.03,10.0,SSW,9.2,-,N/A,,Clear,210,2014-03-14 18:55:00
3:15 PM,56.7,19.4,23,30.02,10.0,South,15.0,20.7,N/A,,Clear,190,2014-03-14 19:15:00
3:35 PM,57.2,19.9,24,30.01,10.0,SW,18.4,21.9,N/A,,Clear,220,2014-03-14 19:35:00
3:55 PM,55.9,19.6,24,29.99,10.0,SW,17.3,23.0,N/A,,Clear,220,2014-03-14 19:55:00
4:15 PM,57.9,20.3,23,29.98,10.0,SSW,16.1,21.9,N/A,,Clear,200,2014-03-14 20:15:00
4:35 PM,56.3,18.7,23,29.97,10.0,SW,15.0,24.2,N/A,,Clear,220,2014-03-14 20:35:00
4:55 PM,57.4,18.3,22,29.96,10.0,SW,10.4,20.7,N/A,,Clear,220,2014-03-14 20:55:00
5:15 PM,56.3,18.7,23,29.95,10.0,SW,15.0,21.9,N/A,,Clear,230,2014-03-14 21:15:00
5:35 PM,55.6,18.1,23,29.94,10.0,SW,13.8,-,N/A,,Clear,230,2014-03-14 21:35:00
5:55 PM,54.9,18.5,24,29.94,10.0,SSW,10.4,18.4,N/A,,Clear,210,2014-03-14 21:55:00
6:15 PM,53.6,17.4,24,29.94,10.0,SSW,8.1,-,N/A,,Clear,200,2014-03-14 22:15:00
6:35 PM,52.7,17.4,25,29.95,10.0,SSW,8.1,-,N/A,,Scattered Clouds,200,2014-03-14 22:35:00
6:55 PM,52.5,17.8,25,29.95,10.0,SSW,10.4,-,N/A,,Mostly Cloudy,200,2014-03-14 22:55:00
7:15 PM,51.8,18.0,26,29.95,10.0,SSW,8.1,-,N/A,,Scattered Clouds,210,2014-03-14 23:15:00
7:35 PM,50.2,18.9,29,29.94,10.0,South,6.9,-,N/A,,Mostly Cloudy,190,2014-03-14 23:35:00
7:55 PM,49.5,18.3,29,29.94,10.0,SSW,9.2,-,N/A,,Scattered Clouds,200,2014-03-14 23:55:00
8:15 PM,49.1,17.8,29,29.95,10.0,SSW,6.9,-,N/A,,Scattered Clouds,210,2014-03-15 00:15:00
8:35 PM,48.6,18.0,30,29.95,10.0,SSW,8.1,-,N/A,,Mostly Cloudy,200,2014-03-15 00:35:00
8:55 PM,48.4,16.9,29,29.94,10.0,South,5.8,-,N/A,,Overcast,180,2014-03-15 00:55:00
9:15 PM,47.3,16.3,29,29.94,10.0,SSW,3.5,-,N/A,,Mostly Cloudy,210,2014-03-15 01:15:00
9:35 PM,47.7,16.9,29,29.96,10.0,SSW,11.5,-,N/A,,Overcast,210,2014-03-15 01:35:00
9:55 PM,47.3,17.4,30,29.96,10.0,SSW,4.6,-,N/A,,Overcast,200,2014-03-15 01:55:00
10:15 PM,45.9,17.6,32,29.96,10.0,SSW,4.6,-,N/A,,Overcast,210,2014-03-15 02:15:00
10:35 PM,46.2,17.2,31,29.96,10.0,Calm,Calm,-,N/A,,Overcast,0,2014-03-15 02:35:00
10:55 PM,46.2,16.2,30,29.96,10.0,Calm,Calm,-,N/A,,Overcast,0,2014-03-15 02:55:00
11:15 PM,46.4,16.5,30,29.96,10.0,SSW,3.5,-,N/A,,Overcast,200,2014-03-15 03:15:00
11:35 PM,48.2,16.5,28,29.96,10.0,WSW,6.9,-,N/A,,Overcast,250,2014-03-15 03:35:00
11:55 PM,49.1,19.0,30,29.95,10.0,West,10.4,-,N/A,,Overcast,280,2014-03-15 03:55:00